Flag for United Kingdom Weather past 2 weeks in Edinburgh, Scotland, United Kingdom

Now
48 °F

Partly sunny.


Feels Like: 42 °F
Forecast: 43 / 50 °F
Wind: 16 mph from West

Location: Edinburgh Airport

Current Time: Dec 18, 2014 at 1:40:10 PM

Latest Report: Dec 18, 2014 at 1:20 PM


Visibility: N/A

Pressure: 29.33 "Hg

Humidity: 87%

Dew point: 45 °F

Location of EdinburghLocation

Historic Weather in Edinburgh — Graph

°F

Edinburgh temperature yesterday

Maximum temperature yesterday: 52 °F (at 4:20 AM)
Minimum temperature yesterday: 43 °F (at 2:20 AM)
Average temperature yesterday: 49 °F

Past Weeks' High & Low Weather Summary

 TemperatureHumidityPressure
High52 °F (Dec 9, 2:50 PM)100% (Dec 3, 9:20 PM)30.30 "Hg (Dec 3, 9:20 PM)
Low27 °F (Dec 9, 2:20 AM)66% (Dec 10, 6:20 PM)29.15 "Hg (Dec 12, 2:50 AM)
Average40 °F87%29.69 "Hg
* Reported Dec 3 12:20 PM — Dec 18 12:20 PM, Edinburgh, Weather by CustomWeather, © 2014

Note: Actual official high and low records may vary slightly from our data, if they occured in-between our weather recording intervals... More about our weather records

Advertising

Edinburgh weather history for previous 24 hours

 ConditionsComfort  
Time TempWeatherWind HumidityBarometerVisibility
12:20 PM
Dec 18
48 °FPartly sunny.13 mph94%29.33 "HgN/A
11:50 AM48 °FLight rain. Broken clouds.9 mph94%29.33 "Hg4 mi
11:20 AM48 °FDrizzle. Partly sunny.9 mph94%29.30 "Hg2 mi
10:50 AM48 °FScattered showers. Broken clouds.7 mph100%29.30 "HgN/A
10:20 AM48 °FSprinkles. Broken clouds.7 mph94%29.30 "Hg2 mi
9:50 AM52 °FScattered showers. Broken clouds.16 mph94%29.30 "HgN/A
9:20 AM52 °FLight rain. Broken clouds.16 mph94%29.33 "HgN/A
8:50 AM52 °FLight rain. Broken clouds.16 mph94%29.33 "HgN/A
8:20 AM52 °FPartly cloudy.14 mph94%29.33 "HgN/A
7:50 AM50 °FLight rain. Passing clouds.10 mph94%29.33 "HgN/A
7:20 AM50 °FLight rain. Partly cloudy.14 mph94%29.36 "Hg6 mi
6:50 AM52 °FLight rain. Partly cloudy.14 mph88%29.36 "HgN/A
6:20 AM52 °FOvercast.16 mph88%29.36 "HgN/A
5:50 AM52 °FPassing clouds.20 mph88%29.39 "Hg4 mi
5:20 AM52 °FPassing clouds.18 mph88%29.39 "HgN/A
4:50 AM52 °FDrizzle. Mostly cloudy.21 mph88%29.39 "Hg4 mi
4:20 AM52 °FPartly cloudy.16 mph88%29.39 "HgN/A
3:20 AM50 °FPartly cloudy.20 mph94%29.42 "HgN/A
2:50 AM50 °FPassing clouds.21 mph88%29.42 "HgN/A
2:20 AM50 °FPassing clouds.15 mph94%29.42 "HgN/A
1:50 AM50 °FPassing clouds.15 mph94%29.42 "HgN/A
1:20 AM48 °FLight rain. Passing clouds.9 mph100%29.45 "HgN/A
12:50 AM48 °FLight rain. Mostly cloudy.9 mph94%29.45 "Hg4 mi
12:20 AM46 °FLight rain. Low clouds.5 mph100%29.47 "Hg4 mi
11:50 PM
Dec 17
46 °FLight rain. Overcast.9 mph100%29.47 "Hg3 mi
11:20 PM46 °FPassing clouds.9 mph100%29.47 "HgN/A
10:20 PM48 °FPassing clouds.8 mph87%29.47 "HgN/A
9:50 PM48 °FPassing clouds.8 mph87%29.47 "HgN/A
9:20 PM48 °FPassing clouds.10 mph87%29.50 "HgN/A
8:50 PM48 °FPartly cloudy.13 mph87%29.50 "HgN/A
8:20 PM48 °FPartly cloudy.13 mph87%29.47 "HgN/A
7:50 PM48 °FPassing clouds.10 mph87%29.50 "HgN/A
7:20 PM48 °FPassing clouds.12 mph87%29.50 "HgN/A
6:50 PM48 °FPartly cloudy.10 mph94%29.50 "HgN/A
6:20 PM48 °FPartly cloudy.12 mph94%29.47 "HgN/A
5:50 PM48 °FMixture of precip. Passing clouds.10 mph87%29.47 "HgN/A
5:20 PM48 °FPartly cloudy.12 mph87%29.47 "HgN/A
4:50 PM48 °FPartly cloudy.10 mph82%29.47 "HgN/A
4:20 PM48 °FPassing clouds.10 mph82%29.47 "HgN/A
3:50 PM48 °FPartly cloudy.12 mph87%29.47 "HgN/A
3:20 PM48 °FScattered clouds.14 mph82%29.47 "HgN/A
2:50 PM50 °FScattered clouds.16 mph76%29.47 "HgN/A
2:20 PM48 °FScattered clouds.14 mph82%29.47 "HgN/A
1:50 PM48 °FScattered clouds.13 mph82%29.45 "HgN/A
1:20 PM50 °FPartly sunny.13 mph76%29.45 "HgN/A
Weather by CustomWeather, © 2014

See weather overviewHow to use our weather pages